SUPERVIEW NEO-2 04

导读

SUPERVIEW NEO-2 04是中国自主研发的高分辨率光学遥感卫星,由上海航天技术研究院研制,于2024年11月24日在酒泉卫星发射中心通过长征二号丙运载火箭发射升空。该卫星聚焦自然资源勘探、城市安全监测、应急灾害响应与海洋事务管理等领域,可为各行业用户提供高质量遥感数据产品与多元应用服务,进一步提升中国商业遥感卫星的服务能力。

Basic Information
目录编号:
62080
目录名称:
SUPERVIEW NEO-2 04
国际标识:
2024-218C
轨道中心:
EARTH
卫星名称:
SUPERVIEW NEO-2 04
卫星全名:
SUPERVIEW NEO-2 04
卫星状态:
在轨 (已飞行650 天)
发射日期:
2024-11-24 UTC
国别 :
中国 (CN)
星等 :
--
Orbit Information
数据来源 国际轨道数据 AOE轨道数据
星历时间 2026-09-02T18:01:52+0800
3天前
查看轨道信息
2026-09-01T10:00:00+0800
4天前
查看轨道信息
半长轴 6884.821km 6884.817km
偏心率 0.0001558 0.0001576
轨道倾角 97.439° 97.435°
近地点辐角 92.116° 86.467°
升交点赤经 251.659° 250.340°
平近点角 268.026° 176.594°
近地点 505.611km 505.594km
远地点 507.757km 507.766km
周期 94.754分钟 94.754分钟
每日圈数 15.19721 15.197222
Detailed Information
使用方式:
暂无
2D Orbit Map
3D Orbit Map
Orbit Altitude Analysis Chart
Orbit Inclination Analysis Chart
Orbit Comprehensive Analysis Chart
View Comprehensive Chart
Conjunction Data List
Event ID Objects TCA Miss Dist (km) Collision Risk Probability Collision Risk Index (CRI) Action
CDM_260905-091506-207906-208021
2026-09-05T
09:15:00+0000
0.088 km
近距离
6.868772E-4 高风险 0.92
CDM_260905-100706-207906-208021
2026-09-05T
10:07:44+0000
0.101 km
中距离
6.003397E-4 高风险 0.91
CDM_260906-130806-208006-439322
2026-09-06T
13:08:12+0000
2.410 km
极远距离
1.735773E-6 低风险 0.4
CDM_260904-140501-895806-208025
2026-09-04T
14:05:52+0000
2.733 km
极远距离
1.541553E-6 低风险 0.39